User: anonymous
Location: Caltech
(34.1382°N, 118.1253°W)
Time: 23:04:44
(UTC-07:00)
Language:

Iridium 15 - Orbit

View from above orbital plane
View from above orbital plane
View from above satellite
View from above satellite

Ground track
Ground track

The orbit data is extracted from the following two-line orbital elements,

1 24869U 97034A   14263.48175490  .00000087  00000-0  24054-4 0   788
2 24869 086.3923 080.1228 0002068 106.9544 307.9777 14.34212751900489
Epoch (UTC): 20 September 2014 11:33:43
Eccentricity: 0.0002068
inclination: 86.3923°
perigee height: 776 km
apogee height: 779 km
right ascension of ascending node: 80.1228°
argument of perigee: 106.9544°
revolutions per day: 14.34212751
mean anomaly at epoch: 307.9777°
orbit number at epoch: 90048

The dashed part of the orbit path shows where the satellite is in the earth's shadow,  

DLR